Home > Weather > Palma > Past weeks

Flag for Spain Weather for the Past 2 Weeks in Palma, Majorca, Spain

Now
48 °F

Passing clouds.


Feels Like: 48 °F
Forecast: 56 / 63 °F
Wind: 2 mph from North

Location: Palma De Mallorca / Son San Juan

Current Time: Feb 8, 2016 at 4:25:58 AM

Latest Report: Feb 8, 2016 at 3:30 AM


Visibility: N/A

Pressure: 30.15 "Hg

Humidity: 71%

Dew point: 39 °F

Location of PalmaLocation

Historic Weather in Palma — Graph

°F

Palma Temperature Yesterday

Maximum temperature yesterday: 59 °F (at 7:30 AM)
Minimum temperature yesterday: 45 °F (at 12:00 AM)
Average temperature yesterday: 54 °F

High & Low Weather Summary for the Past Weeks

 TemperatureHumidityPressure
High72 °F (Feb 1, 1:30 PM)100% (Jan 24, 3:00 AM)30.60 "Hg (Jan 24, 3:00 AM)
Low36 °F (Feb 5, 7:30 AM)42% (Feb 7, 3:30 PM)29.80 "Hg (Feb 7, 8:30 AM)
Average53 °F85%30.38 "Hg
* Reported Jan 24 3:00 AM — Feb 8 3:00 AM, Palma, Weather by CustomWeather, © 2016

Note: Actual official high and low records may vary slightly from our data, if they occured in-between our weather recording intervals... More about our weather records

Advertising

Palma Weather History for the Previous 24 Hours

 ConditionsComfort  
Time TempWeatherWind HumidityBarometerVisibility
3:00 AM
Mon, Feb 8
52 °FPassing clouds.5 mph62%30.18 "HgN/A
2:30 AM52 °FPassing clouds.7 mph62%30.18 "HgN/A
2:00 AM50 °FPassing clouds.8 mph71%30.18 "HgN/A
1:30 AM50 °FPassing clouds.5 mph67%30.18 "HgN/A
1:00 AM52 °FPassing clouds.3 mph58%30.18 "HgN/A
12:30 AM54 °FPassing clouds.5 mph54%30.18 "HgN/A
12:00 AM55 °FPassing clouds.14 mph47%30.18 "HgN/A
11:30 PM
Sun, Feb 7
54 °FPassing clouds.13 mph51%30.18 "HgN/A
11:00 PM54 °FPassing clouds.9 mph51%30.18 "HgN/A
10:30 PM54 °FPassing clouds.7 mph51%30.18 "HgN/A
10:00 PM55 °FPassing clouds.5 mph47%30.18 "HgN/A
9:30 PM55 °FPassing clouds.6 mph47%30.15 "HgN/A
9:00 PM54 °FPassing clouds.2 mph58%30.15 "HgN/A
8:30 PM52 °FPassing clouds.2 mph67%30.12 "HgN/A
8:00 PM50 °FPassing clouds.2 mph76%30.12 "HgN/A
7:30 PM55 °FPassing clouds.2 mph51%30.12 "HgN/A
7:00 PM55 °FPassing clouds.7 mph51%30.09 "HgN/A
6:30 PM55 °FPassing clouds.12 mph55%30.07 "HgN/A
6:00 PM57 °FScattered clouds.14 mph48%30.07 "HgN/A
5:30 PM57 °FScattered clouds.13 mph48%30.07 "HgN/A
5:00 PM57 °FScattered clouds.22 mph48%30.04 "HgN/A
4:30 PM57 °FScattered clouds.20 mph48%30.01 "HgN/A
4:00 PM57 °FScattered clouds.28 mph48%29.98 "HgN/A
3:30 PM59 °FScattered clouds.31 mph42%29.95 "HgN/A
3:00 PM59 °FScattered clouds.25 mph45%29.95 "HgN/A
2:30 PM59 °FPassing clouds.29 mph48%29.92 "HgN/A
2:00 PM59 °FPassing clouds.25 mph45%29.92 "HgN/A
1:30 PM59 °FPassing clouds.25 mph48%29.92 "HgN/A
1:00 PM59 °FPassing clouds.23 mph51%29.89 "HgN/A
12:30 PM59 °FScattered clouds.20 mph55%29.89 "HgN/A
12:00 PM57 °FPassing clouds.21 mph63%29.89 "HgN/A
11:30 AM54 °FScattered clouds.13 mph72%29.89 "HgN/A
11:00 AM52 °FScattered clouds.8 mph77%29.86 "HgN/A
10:30 AM50 °FPartly sunny.3 mph88%29.86 "HgN/A
10:00 AM52 °FLight rain. Partly sunny.17 mph82%29.89 "HgN/A
9:30 AM50 °FRain. Partly sunny.23 mph88%29.83 "Hg5 mi
9:00 AM57 °FHeavy rain. Partly sunny.17 mph88%29.83 "Hg2 mi
8:30 AM59 °FRain. Partly sunny.13 mph94%29.80 "Hg5 mi
8:00 AM57 °FScattered clouds.7 mph100%29.83 "Hg5 mi
7:30 AM59 °FPassing clouds.9 mph94%29.83 "HgN/A
7:00 AM57 °FPassing clouds.8 mph100%29.83 "HgN/A
6:30 AM57 °FPassing clouds.7 mph94%29.86 "HgN/A
6:00 AM54 °FPassing clouds.5 mph94%29.86 "HgN/A
5:30 AM54 °FPassing clouds.3 mph94%29.86 "HgN/A
5:00 AM54 °FPassing clouds.1 mph94%29.89 "HgN/A
4:30 AM52 °FPassing clouds.No wind100%29.89 "HgN/A
4:00 AM52 °FPassing clouds.1 mph100%29.92 "HgN/A
Weather by CustomWeather, © 2016

See weather overviewHow to use our weather pages